Flag for U.S.A. Weather past 2 weeks in Toledo, Ohio, U.S.A.

Now
63 °F

Sunny.


Feels Like: 63 °F
Forecast: 53 / 78 °F
Wind: 8 mph from Southwest

Location: Toledo Suburban Airport

Current Time: Sep 20, 2014 at 10:17:38 AM

Latest Report: Sep 20, 2014 at 9:35 AM


Visibility: 10 mi

Pressure: 30.00 "Hg

Humidity: 73%

Dew point: 54 °F

Location of ToledoLocation

Historic Weather in Toledo — Graph

°F

Toledo temperature yesterday

Maximum temperature yesterday: 68 °F (at 1:35 PM)
Minimum temperature yesterday: 46 °F (at 4:35 AM)
Average temperature yesterday: 56 °F

Past Weeks' High & Low Weather Summary

 TemperatureHumidityPressure
High91 °F (Sep 5, 1:54 PM)94% (Sep 5, 9:34 PM)30.36 "Hg (Sep 5, 9:34 PM)
Low41 °F (Sep 17, 6:35 AM)33% (Sep 17, 2:54 PM)29.63 "Hg (Sep 10, 7:34 PM)
Average60 °F77%30.11 "Hg
* Reported Sep 5 9:15 AM — Sep 20 9:15 AM, Toledo, Weather by CustomWeather, © 2014

Note: Actual official high and low records may vary slightly from our data, if they occured in-between our weather recording intervals... More about our weather records

Advertising

Toledo weather history for previous 24 hours

 ConditionsComfort  
Time TempWeatherWind HumidityBarometerVisibility
9:15 AM
Sep 20
61 °FSunny.9 mph77%30.01 "Hg10 mi
8:54 AM61 °FSunny.7 mph72%30.00 "Hg10 mi
8:35 AM59 °FSunny.7 mph77%30.01 "Hg10 mi
8:15 AM55 °FClear.8 mph82%30.01 "Hg10 mi
7:54 AM55 °FClear.6 mph82%30.01 "Hg10 mi
7:35 AM54 °FClear.6 mph82%30.02 "Hg10 mi
7:15 AM54 °FClear.6 mph82%30.02 "Hg10 mi
6:55 AM55 °FClear.5 mph77%30.02 "Hg10 mi
6:35 AM55 °FClear.6 mph77%30.03 "Hg10 mi
6:15 AM55 °FClear.6 mph72%30.02 "Hg10 mi
5:54 AM55 °FClear.7 mph72%30.02 "Hg10 mi
5:35 AM55 °FClear.7 mph72%30.01 "Hg10 mi
5:15 AM55 °FClear.6 mph72%30.00 "Hg10 mi
4:54 AM55 °FClear.8 mph72%30.00 "Hg10 mi
4:35 AM54 °FClear.7 mph77%30.00 "Hg10 mi
4:15 AM54 °FClear.5 mph77%30.00 "Hg10 mi
3:54 AM55 °FClear.5 mph72%30.00 "Hg10 mi
3:35 AM54 °FClear.5 mph77%30.00 "Hg10 mi
3:15 AM54 °FClear.6 mph77%30.01 "Hg10 mi
2:55 AM54 °FClear.5 mph77%30.02 "Hg10 mi
2:35 AM54 °FClear.5 mph82%30.03 "Hg10 mi
2:15 AM54 °FClear.5 mph88%30.03 "Hg10 mi
1:54 AM54 °FClear.3 mph88%30.03 "Hg10 mi
1:35 AM54 °FClear.3 mph88%30.03 "Hg10 mi
1:15 AM52 °FClear.3 mph94%30.03 "Hg7 mi
12:54 AM52 °FFog.3 mph94%30.05 "Hg4 mi
12:35 AM50 °FFog.No wind94%30.06 "Hg2 mi
12:15 AM52 °FFog.No wind94%30.06 "Hg4 mi
11:54 PM
Sep 19
52 °FFog.No wind94%30.07 "Hg3 mi
11:35 PM52 °FFog.No wind94%30.07 "Hg5 mi
11:15 PM52 °FClear.No wind94%30.07 "Hg7 mi
10:55 PM52 °FFog.No wind94%30.08 "Hg4 mi
10:35 PM52 °FFog.No wind94%30.09 "Hg4 mi
10:15 PM52 °FFog.No wind94%30.09 "Hg4 mi
9:15 PM54 °FClear.No wind94%30.09 "Hg7 mi
8:54 PM55 °FClear.No wind88%30.10 "Hg10 mi
8:35 PM55 °FSunny.No wind88%30.10 "Hg10 mi
8:15 PM57 °FSunny.No wind82%30.10 "Hg10 mi
7:54 PM59 °FSunny.No wind82%30.10 "Hg10 mi
7:35 PM61 °FSunny.3 mph77%30.10 "Hg10 mi
7:15 PM61 °FSunny.3 mph72%30.11 "Hg10 mi
6:55 PM63 °FSunny.3 mph68%30.11 "Hg10 mi
6:35 PM63 °FSunny.5 mph64%30.12 "Hg10 mi
5:55 PM64 °FSunny.5 mph60%30.13 "Hg10 mi
5:35 PM64 °FSunny.6 mph60%30.14 "Hg10 mi
5:15 PM64 °FSunny.8 mph60%30.15 "Hg10 mi
4:55 PM66 °FSunny.6 mph56%30.15 "Hg10 mi
4:34 PM66 °FSunny.8 mph52%30.15 "Hg10 mi
4:15 PM68 °FSunny.7 mph49%30.15 "Hg10 mi
3:54 PM68 °FSunny.3 mph53%30.17 "Hg10 mi
3:35 PM68 °FSunny.7 mph53%30.17 "Hg10 mi
3:15 PM68 °FSunny.3 mph49%30.18 "Hg10 mi
2:54 PM68 °FSunny.6 mph46%30.18 "Hg10 mi
2:35 PM68 °FSunny.5 mph46%30.19 "Hg10 mi
1:55 PM64 °FSunny.3 mph56%30.20 "Hg10 mi
1:35 PM68 °FScattered clouds.3 mph53%30.20 "Hg10 mi
1:15 PM66 °FSunny.6 mph52%30.21 "Hg10 mi
12:55 PM64 °FSunny.No wind60%30.22 "Hg10 mi
12:35 PM64 °FScattered clouds.No wind60%30.23 "Hg10 mi
12:15 PM64 °FScattered clouds.3 mph60%30.23 "Hg10 mi
11:54 AM63 °FSunny.No wind64%30.24 "Hg10 mi
11:35 AM63 °FSunny.3 mph68%30.25 "Hg10 mi
11:15 AM63 °FSunny.No wind64%30.25 "Hg10 mi
10:54 AM61 °FSunny.5 mph68%30.25 "Hg10 mi
10:35 AM61 °FSunny.3 mph68%30.26 "Hg10 mi
10:15 AM59 °FSunny.3 mph72%30.26 "Hg10 mi
Weather by CustomWeather, © 2014

See weather overviewHow to use our weather pages